Lid_Strength_Index
1 1 1 2 2 3 3 3 2 2 2 2 1 1 1 1 0 2 5 3 3 1 2 3 4 4 4 5 5 5 9 10 9 9 9 8 8 7 6 7 7 6 6 6 4
0 0 1 1 1 2 3 3 2 2 2 2 1 1 1 1 2 4 2 1 1 1 4 5 6 5 6 6 6 7 9 9 8 8 9 8 8 8 8 8 8 7 6 6 5
0 -0 -0 0 1 1 1 2 3 2 2 2 2 2 1 1 4 5 1 2 1 1 3 4 5 6 8 7 7 8 10 8 9 8 8 9 9 7 9 9 7 7 6 6 6
0 1 -1 -0 -0 0 1 1 2 2 2 2 2 2 1 2 10 4 2 2 2 2 4 5 6 8 8 9 8 10 9 9 9 8 9 9 8 9 8 8 6 6 6 6 6
1 1 1 0 -0 -0 0 1 1 2 2 2 2 2 3 6 7 4 2 3 3 4 5 6 7 7 9 9 9 10 9 9 8 8 9 8 9 9 9 7 6 6 7 7 6
3 2 1 2 1 -0 0 0 1 1 1 2 2 3 4 9 4 3 4 3 4 5 5 5 6 6 8 9 9 8 9 9 8 8 8 10 9 10 8 7 7 7 7 7 7
3 3 3 2 2 1 -0 0 0 1 1 1 3 4 7 9 4 4 3 4 4 4 6 5 5 7 7 9 7 8 10 8 8 9 9 9 10 10 7 7 8 8 8 7 6
4 4 4 3 2 2 2 0 0 1 1 1 3 5 10 5 4 5 3 4 3 4 5 4 5 6 7 7 9 10 10 11 9 9 9 10 11 8 7 8 8 8 8 7 7
4 5 4 4 4 3 2 2 1 1 2 3 5 6 10 5 7 5 4 5 5 4 5 5 5 7 8 10 10 10 11 10 10 9 9 10 10 7 8 9 9 8 8 8 7
4 4 5 5 4 4 2 1 2 4 4 5 6 9 8 9 6 6 5 4 6 6 7 7 7 9 9 10 15 12 11 10 11 10 10 11 11 9 7 8 8 8 7 8 7
3 5 4 5 5 4 3 4 5 8 8 7 8 10 9 6 4 6 5 6 6 7 10 9 11 11 10 9 9 10 11 11 9 10 12 11 10 9 8 8 8 7 8 7 7
3 4 5 5 5 4 3 6 6 10 9 7 9 9 7 5 8 6 4 8 9 10 9 11 12 9 9 10 10 11 12 11 9 11 12 11 12 10 9 9 9 8 8 8 7
4 4 4 5 5 3 5 6 7 9 12 8 9 10 9 7 8 7 6 7 8 10 11 11 10 10 11 12 12 12 12 12 12 11 11 13 11 9 9 10 10 9 9 9 8
4 4 4 4 5 6 6 6 6 5 12 11 11 9 9 8 10 6 5 7 9 10 9 10 9 11 12 12 12 13 11 12 13 13 13 12 18 14 9 10 11 10 9 9 9
4 4 4 4 5 6 6 5 6 5 20 9 12 8 8 10 10 10 6 8 10 10 9 11 11 11 11 11 11 12 12 12 13 14 14 13 15 13 10 11 11 10 9 9 9
4 4 4 5 5 4 4 5 7 14 20 12 11 12 12 11 11 11 11 8 8 10 10 10 9 9 10 10 10 11 13 13 13 14 17 14 14 14 12 12 12 11 10 10 9
3 4 4 5 6 2 3 6 14 18 11 13 13 12 11 13 12 11 13 14 14 14 13 12 12 11 10 12 11 12 13 17 19 18 17 16 17 12 10 12 12 11 10 10 9
3 3 5 5 3 3 4 10 17 15 13 11 12 12 13 12 12 12 12 14 13 13 12 13 15 13 12 12 13 13 12 14 20 18 15 16 17 13 11 11 12 10 10 10 10
3 5 5 3 2 3 7 14 15 13 10 13 12 14 14 13 13 12 12 13 11 13 15 14 14 13 12 13 12 14 16 13 15 18 17 15 13 11 13 12 12 12 10 11 10
5 6 6 2 1 4 9 13 12 9 10 12 14 12 14 14 14 13 13 11 11 11 11 13 16 14 14 13 13 14 13 17 16 20 20 15 15 14 14 13 12 12 11 10 10
6 9 3 3 2 7 12 12 10 7 8 11 13 13 13 13 13 14 13 11 11 10 11 12 13 16 15 16 16 16 16 16 15 15 17 17 15 12 12 12 12 11 10 10 10
7 12 4 2 9 10 11 10 8 8 7 9 10 11 12 11 13 13 13 12 11 11 13 11 13 15 16 14 13 13 15 15 17 17 17 18 15 12 12 12 12 11 10 10 9
8 9 4 4 12 11 10 10 9 9 9 10 11 10 10 13 14 12 11 10 11 11 13 12 14 17 17 15 15 15 14 14 14 15 17 17 14 12 12 12 12 11 11 10 10
7 11 8 7 9 11 11 11 11 8 8 9 10 10 11 13 13 13 12 12 11 11 11 11 13 14 16 14 13 17 15 14 14 16 16 15 12 12 12 12 11 11 10 10 10
6 11 11 12 11 11 10 11 12 13 11 10 11 13 14 15 13 13 13 13 12 11 11 12 15 15 14 13 14 14 15 14 15 14 15 13 13 11 10 11 11 10 10 11 11
8 9 8 10 10 11 12 13 13 13 13 13 14 13 12 15 15 16 15 13 13 12 12 12 15 16 17 14 15 16 14 14 14 14 13 13 13 11 10 9 10 10 10 11 11
4 5 8 10 11 12 13 13 13 12 12 12 12 12 13 14 13 13 13 13 14 13 13 13 15 16 17 16 16 17 16 14 13 13 13 15 12 10 11 10 9 9 9 10 11